| time (UTC) | temp F | wind direction | speed MPH | gust MPH | rain 1hr in | rain 24hr in | rain mn in | humidity % | barometer mb |
| 20260906025006 | 63 | 39 | 0.0 | 0.0 | 0.00 | 0.00 | 0.00 | 1014.0 | |
| 20260906024507 | 64 | 39 | 0.0 | 0.0 | 0.00 | 0.00 | 0.00 | 1013.9 | |
| 20260906024006 | 64 | 39 | 0.0 | 0.0 | 0.00 | 0.00 | 0.00 | 1013.8 | |
| 20260906023506 | 64 | 39 | 0.0 | 3.0 | 0.00 | 0.00 | 0.00 | 1013.8 | |
| 20260906023006 | 64 | 39 | 0.0 | 3.0 | 0.00 | 0.00 | 0.00 | 1013.9 | |
| 20260906022506 | 64 | 39 | 0.0 | 0.0 | 0.00 | 0.00 | 0.00 | 1013.9 | |
| 20260906022006 | 65 | 39 | 0.0 | 0.0 | 0.00 | 0.00 | 0.00 | 1013.9 | |
| 20260906021507 | 65 | 39 | 0.0 | 0.0 | 0.00 | 0.00 | 0.00 | 1013.9 | |
| 20260906021006 | 65 | 39 | 0.0 | 0.0 | 0.00 | 0.00 | 0.00 | 1013.9 | |
| 20260906020506 | 65 | 39 | 0.0 | 0.0 | 0.00 | 0.00 | 0.00 | 1013.8 | |
| 20260906020006 | 66 | 39 | 0.0 | 3.0 | 0.00 | 0.00 | 0.00 | 1013.8 | |
| 20260906015521 | 66 | 39 | 0.0 | 5.0 | 0.00 | 0.00 | 0.00 | 1013.8 | |
| 20260906015006 | 66 | 39 | 1.0 | 5.0 | 0.00 | 0.00 | 0.00 | 1013.8 | |
| 20260906014506 | 66 | 42 | 0.0 | 5.0 | 0.00 | 0.00 | 0.00 | 1013.7 | |
| 20260906014006 | 66 | 42 | 0.0 | 3.0 | 0.00 | 0.00 | 0.00 | 1013.7 | |
| 20260906013506 | 66 | 42 | 0.0 | 3.0 | 0.00 | 0.00 | 0.00 | 1013.8 | |
| 20260906013007 | 66 | 42 | 0.0 | 5.0 | 0.00 | 0.00 | 0.00 | 1013.7 | |
| 20260906012506 | 66 | 42 | 2.0 | 5.0 | 0.00 | 0.00 | 0.00 | 1013.7 | |
| 20260906012006 | 66 | 42 | 0.0 | 3.0 | 0.00 | 0.00 | 0.00 | 1013.7 | |
| 20260906011507 | 66 | 42 | 0.0 | 8.0 | 0.00 | 0.00 | 0.00 | 1013.7 | |
| 20260906011007 | 66 | 42 | 0.0 | 8.0 | 0.00 | 0.00 | 0.00 | 1013.6 | |
| 20260906010507 | 66 | 52 | 0.0 | 3.0 | 0.00 | 0.00 | 0.00 | 1013.6 | |
| 20260906010008 | 66 | 52 | 0.0 | 5.0 | 0.00 | 0.00 | 0.00 | 1013.6 | |
| 20260906005506 | 67 | 52 | 2.0 | 5.0 | 0.00 | 0.00 | 0.00 | 1013.6 | |
| 20260906005007 | 67 | 52 | 0.0 | 6.0 | 0.00 | 0.00 | 0.00 | 1013.5 | |
| 20260906004506 | 67 | 52 | 0.0 | 6.0 | 0.00 | 0.00 | 0.00 | 1013.5 | |
| 20260906004006 | 67 | 20 | 3.0 | 6.0 | 0.00 | 0.00 | 0.00 | 1013.6 | |
| 20260906003506 | 67 | 44 | 1.0 | 6.0 | 0.00 | 0.00 | 0.00 | 1013.5 | |
| 20260906003006 | 67 | 63 | 0.0 | 6.0 | 0.00 | 0.00 | 0.00 | 1013.5 | |
| 20260906002506 | 67 | 52 | 0.0 | 3.0 | 0.00 | 0.00 | 0.00 | 1013.5 | |
| 20260906002006 | 68 | 69 | 0.0 | 8.0 | 0.00 | 0.00 | 0.00 | 1013.4 | |
| 20260906001509 | 68 | 69 | 0.0 | 8.0 | 0.00 | 0.00 | 0.00 | 1013.4 | |
| 20260906001006 | 68 | 45 | 0.0 | 6.0 | 0.00 | 0.00 | 0.00 | 1013.3 | |
| 20260906000506 | 68 | 45 | 1.0 | 6.0 | 0.00 | 0.00 | 0.00 | 1013.2 | |
| 20260906000006 | 68 | 35 | 1.0 | 5.0 | 0.00 | 0.00 | 0.00 | 1013.3 | |
| 20260905235506 | 68 | 26 | 0.0 | 5.0 | 0.00 | 0.00 | 0.00 | 1013.1 | |
| 20260905235036 | 69 | 26 | 0.0 | 5.0 | 0.00 | 0.00 | 0.00 | 1013.2 | |
| 20260905234506 | 69 | 26 | 0.0 | 3.0 | 0.00 | 0.00 | 0.00 | 1013.1 | |
| 20260905234022 | 69 | 26 | 0.0 | 3.0 | 0.00 | 0.00 | 0.00 | 1013.0 | |
| 20260905233506 | 69 | 26 | 0.0 | 6.0 | 0.00 | 0.00 | 0.00 | 1013.0 | |
| 20260905233008 | 70 | 26 | 0.0 | 6.0 | 0.00 | 0.00 | 0.00 | 1013.0 | |
| 20260905232536 | 70 | 356 | 2.0 | 6.0 | 0.00 | 0.00 | 0.00 | 1013.1 | |
| 20260905232006 | 70 | 28 | 2.0 | 6.0 | 0.00 | 0.00 | 0.00 | 1013.1 | |
| 20260905231506 | 70 | 28 | 1.0 | 6.0 | 0.00 | 0.00 | 0.00 | 1013.0 | |
| 20260905231006 | 70 | 28 | 2.0 | 6.0 | 0.00 | 0.00 | 0.00 | 1012.9 | |
| 20260905230507 | 71 | 31 | 3.0 | 6.0 | 0.00 | 0.00 | 0.00 | 1012.8 | |
| 20260905230007 | 71 | 32 | 2.0 | 9.0 | 0.00 | 0.00 | 0.00 | 1012.7 | |
| 20260905225506 | 71 | 32 | 2.0 | 9.0 | 0.00 | 0.00 | 0.00 | 1012.6 | |
| 20260905225006 | 71 | 11 | 0.0 | 9.0 | 0.00 | 0.00 | 0.00 | 1012.6 | |
| 20260905224535 | 71 | 8 | 2.0 | 11.0 | 0.00 | 0.00 | 0.00 | 1012.5 | |
| 20260905224007 | 71 | 25 | 0.0 | 11.0 | 0.00 | 0.00 | 0.00 | 1012.6 | |
| 20260905223505 | 71 | 24 | 2.0 | 9.0 | 0.00 | 0.00 | 0.00 | 1012.6 | |
| 20260905223006 | 72 | 30 | 2.0 | 11.0 | 0.00 | 0.00 | 0.00 | 1012.5 | |
| 20260905222507 | 72 | 36 | 3.0 | 11.0 | 0.00 | 0.00 | 0.00 | 1012.5 | |
| 20260905222006 | 72 | 25 | 0.0 | 8.0 | 0.00 | 0.00 | 0.00 | 1012.5 | |
| 20260905221521 | 72 | 12 | 2.0 | 8.0 | 0.00 | 0.00 | 0.00 | 1012.3 | |
| 20260905221006 | 72 | 19 | 3.0 | 11.0 | 0.00 | 0.00 | 0.00 | 1012.3 | |
| 20260905220506 | 72 | 0 | 3.0 | 11.0 | 0.00 | 0.00 | 0.00 | 1012.2 | |
| 20260905220006 | 72 | 26 | 3.0 | 9.0 | 0.00 | 0.00 | 0.00 | 1012.2 | |
| 20260905215506 | 72 | 7 | 1.0 | 6.0 | 0.00 | 0.00 | 0.00 | 1012.2 | |
| 20260905215006 | 72 | 7 | 1.0 | 6.0 | 0.00 | 0.00 | 0.00 | 1012.2 | |
| 20260905214505 | 73 | 42 | 0.0 | 6.0 | 0.00 | 0.00 | 0.00 | 1012.1 | |
| 20260905214007 | 73 | 0 | 0.0 | 5.0 | 0.00 | 0.00 | 0.00 | 1012.1 | |
| 20260905213521 | 73 | 0 | 2.0 | 8.0 | 0.00 | 0.00 | 0.00 | 1012.1 | |
| 20260905213005 | 74 | 351 | 1.0 | 9.0 | 0.00 | 0.00 | 0.00 | 1012.2 | |
| 20260905212506 | 74 | 1 | 2.0 | 13.0 | 0.00 | 0.00 | 0.00 | 1012.2 | |
| 20260905212005 | 74 | 29 | 6.0 | 13.0 | 0.00 | 0.00 | 0.00 | 1012.2 | |
| 20260905211522 | 75 | 253 | 0.0 | 6.0 | 0.00 | 0.00 | 0.00 | 1012.1 | |
| 20260905211006 | 75 | 354 | 0.0 | 6.0 | 0.00 | 0.00 | 0.00 | 1012.0 | |
| 20260905210506 | 75 | 253 | 0.0 | 9.0 | 0.00 | 0.00 | 0.00 | 1012.0 | |
| 20260905210006 | 74 | 275 | 2.0 | 9.0 | 0.00 | 0.00 | 0.00 | 1011.9 | |
| 20260905205507 | 74 | 4 | 1.0 | 8.0 | 0.00 | 0.00 | 0.00 | 1011.9 | |
| 20260905205005 | 75 | 48 | 1.0 | 8.0 | 0.00 | 0.00 | 0.00 | 1011.9 | |
| 20260905204506 | 75 | 28 | 1.0 | 8.0 | 0.00 | 0.00 | 0.00 | 1011.9 | |
| 20260905204006 | 75 | 22 | 0.0 | 9.0 | 0.00 | 0.00 | 0.00 | 1011.8 | |
| 20260905203536 | 75 | 5 | 1.0 | 13.0 | 0.00 | 0.00 | 0.00 | 1011.8 | |
| 20260905203006 | 75 | 296 | 2.0 | 13.0 | 0.00 | 0.00 | 0.00 | 1011.8 | |
| 20260905202507 | 75 | 65 | 6.0 | 14.0 | 0.00 | 0.00 | 0.00 | 1011.9 | |
| 20260905202005 | 75 | 7 | 1.0 | 14.0 | 0.00 | 0.00 | 0.00 | 1011.9 | |
| 20260905201520 | 74 | 0 | 1.0 | 9.0 | 0.00 | 0.00 | 0.00 | 1011.9 | |
| 20260905201005 | 74 | 91 | 6.0 | 8.0 | 0.00 | 0.00 | 0.00 | 1011.8 | |
| 20260905200506 | 74 | 107 | 0.0 | 9.0 | 0.00 | 0.00 | 0.00 | 1011.8 | |
| 20260905200006 | 74 | 77 | 0.0 | 9.0 | 0.00 | 0.00 | 0.00 | 1011.6 | |
| 20260905195535 | 74 | 113 | 1.0 | 9.0 | 0.00 | 0.00 | 0.00 | 1011.7 | |
| 20260905195005 | 74 | 352 | 2.0 | 13.0 | 0.00 | 0.00 | 0.00 | 1011.7 | |
| 20260905194506 | 74 | 126 | 5.0 | 13.0 | 0.00 | 0.00 | 0.00 | 1011.8 | |
| 20260905194006 | 74 | 23 | 1.0 | 11.0 | 0.00 | 0.00 | 0.00 | 1011.8 | |
| 20260905193505 | 74 | 52 | 3.0 | 11.0 | 0.00 | 0.00 | 0.00 | 1011.9 | |
| 20260905193035 | 74 | 69 | 0.0 | 8.0 | 0.00 | 0.00 | 0.00 | 1011.8 | |
| 20260905192506 | 74 | 67 | 0.0 | 8.0 | 0.00 | 0.00 | 0.00 | 1012.0 | |
| 20260905192007 | 74 | 0 | 3.0 | 9.0 | 0.00 | 0.00 | 0.00 | 1012.0 | |
| 20260905191536 | 74 | 78 | 3.0 | 11.0 | 0.00 | 0.00 | 0.00 | 1012.0 | |
| 20260905191020 | 74 | 1 | 2.0 | 11.0 | 0.00 | 0.00 | 0.00 | 1012.0 | |
| 20260905190506 | 74 | 41 | 2.0 | 11.0 | 0.00 | 0.00 | 0.00 | 1012.0 | |
| 20260905190006 | 74 | 46 | 5.0 | 11.0 | 0.00 | 0.00 | 0.00 | 1012.0 | |
| 20260905185506 | 74 | 67 | 0.0 | 11.0 | 0.00 | 0.00 | 0.00 | 1012.0 | |
| 20260905185037 | 74 | 0 | 1.0 | 8.0 | 0.00 | 0.00 | 0.00 | 1011.9 | |
| 20260905184507 | 74 | 0 | 1.0 | 9.0 | 0.00 | 0.00 | 0.00 | 1012.0 | |
| 20260905184006 | 74 | 34 | 2.0 | 9.0 | 0.00 | 0.00 | 0.00 | 1012.1 | |
| 20260905183520 | 74 | 72 | 0.0 | 11.0 | 0.00 | 0.00 | 0.00 | 1012.1 | |
| 20260905183005 | 74 | 4 | 0.0 | 11.0 | 0.00 | 0.00 | 0.00 | 1012.1 | |
| 20260905182507 | 74 | 22 | 2.0 | 20.0 | 0.00 | 0.00 | 0.00 | 1012.1 | |
| 20260905182005 | 75 | 30 | 6.0 | 20.0 | 0.00 | 0.00 | 0.00 | 1012.0 | |
| 20260905181535 | 75 | 43 | 7.0 | 17.0 | 0.00 | 0.00 | 0.00 | 1012.0 | |
| 20260905181007 | 74 | 108 | 2.0 | 8.0 | 0.00 | 0.00 | 0.00 | 1011.9 | |
| 20260905180535 | 74 | 54 | 0.0 | 8.0 | 0.00 | 0.00 | 0.00 | 1011.9 | |
| 20260905180005 | 75 | 47 | 2.0 | 9.0 | 0.00 | 0.00 | 0.00 | 1011.8 | |
| 20260905175505 | 75 | 104 | 1.0 | 9.0 | 0.00 | 0.00 | 0.00 | 1011.8 | |
| 20260905175035 | 75 | 95 | 3.0 | 14.0 | 0.00 | 0.00 | 0.00 | 1011.8 | |
| 20260905174506 | 75 | 350 | 3.0 | 14.0 | 0.00 | 0.00 | 0.00 | 1011.8 | |
| 20260905174005 | 74 | 0 | 2.0 | 13.0 | 0.00 | 0.00 | 0.00 | 1011.8 | |
| 20260905173505 | 74 | 84 | 3.0 | 14.0 | 0.00 | 0.00 | 0.00 | 1011.8 | |
| 20260905173006 | 74 | 20 | 6.0 | 14.0 | 0.00 | 0.00 | 0.00 | 1011.8 | |
| 20260905172505 | 74 | 52 | 2.0 | 13.0 | 0.00 | 0.00 | 0.00 | 1011.9 | |
| 20260905172005 | 73 | 52 | 2.0 | 16.0 | 0.00 | 0.00 | 0.00 | 1012.0 | |
| 20260905171505 | 73 | 1 | 2.0 | 16.0 | 0.00 | 0.00 | 0.00 | 1012.0 | |
| 20260905171007 | 73 | 8 | 2.0 | 11.0 | 0.00 | 0.00 | 0.00 | 1012.0 | |
| 20260905170535 | 73 | 357 | 5.0 | 11.0 | 0.00 | 0.00 | 0.00 | 1012.0 | |
| 20260905170020 | 73 | 36 | 1.0 | 13.0 | 0.00 | 0.00 | 0.00 | 1012.1 | |
| 20260905165520 | 73 | 3 | 3.0 | 13.0 | 0.00 | 0.00 | 0.00 | 1012.2 | |
| 20260905165005 | 74 | 354 | 3.0 | 11.0 | 0.00 | 0.00 | 0.00 | 1012.3 | |
| 20260905164505 | 74 | 0 | 3.0 | 11.0 | 0.00 | 0.00 | 0.00 | 1012.2 | |
| 20260905164005 | 74 | 0 | 2.0 | 11.0 | 0.00 | 0.00 | 0.00 | 1012.2 | |
| 20260905163505 | 74 | 9 | 6.0 | 11.0 | 0.00 | 0.00 | 0.00 | 1012.1 | |
| 20260905163005 | 74 | 30 | 1.0 | 11.0 | 0.00 | 0.00 | 0.00 | 1012.0 | |
| 20260905162506 | 74 | 323 | 8.0 | 11.0 | 0.00 | 0.00 | 0.00 | 1012.1 | |
| 20260905162021 | 74 | 42 | 3.0 | 13.0 | 0.00 | 0.00 | 0.00 | 1012.1 | |
| 20260905161505 | 74 | 26 | 3.0 | 17.0 | 0.00 | 0.00 | 0.00 | 1012.2 | |
| 20260905161005 | 75 | 6 | 3.0 | 17.0 | 0.00 | 0.00 | 0.00 | 1012.3 | |
| 20260905160506 | 75 | 91 | 5.0 | 13.0 | 0.00 | 0.00 | 0.00 | 1012.3 | |
| 20260905160050 | 75 | 46 | 6.0 | 11.0 | 0.00 | 0.00 | 0.00 | 1012.2 | |
| 20260905155520 | 75 | 94 | 3.0 | 11.0 | 0.00 | 0.00 | 0.00 | 1012.2 | |
| 20260905155005 | 75 | 34 | 2.0 | 11.0 | 0.00 | 0.00 | 0.00 | 1012.3 | |
| 20260905154520 | 75 | 81 | 3.0 | 16.0 | 0.00 | 0.00 | 0.00 | 1012.4 | |
| 20260905154005 | 75 | 83 | 3.0 | 16.0 | 0.00 | 0.00 | 0.00 | 1012.4 | |
| 20260905153505 | 75 | 46 | 1.0 | 13.0 | 0.00 | 0.00 | 0.00 | 1012.4 | |
| 20260905153005 | 75 | 73 | 2.0 | 13.0 | 0.00 | 0.00 | 0.00 | 1012.4 | |
| 20260905152505 | 74 | 35 | 3.0 | 16.0 | 0.00 | 0.00 | 0.00 | 1012.6 | |
| 20260905152005 | 74 | 0 | 3.0 | 16.0 | 0.00 | 0.00 | 0.00 | 1012.6 | |
| 20260905151505 | 73 | 40 | 2.0 | 14.0 | 0.00 | 0.00 | 0.00 | 1012.6 | |
| 20260905151020 | 73 | 8 | 6.0 | 14.0 | 0.00 | 0.00 | 0.00 | 1012.6 | |
| 20260905150505 | 73 | 28 | 2.0 | 14.0 | 0.00 | 0.00 | 0.00 | 1012.5 | |
| 20260905150005 | 72 | 92 | 3.0 | 11.0 | 0.00 | 0.00 | 0.00 | 1012.6 | |
| 20260905145507 | 72 | 13 | 2.0 | 11.0 | 0.00 | 0.00 | 0.00 | 1012.3 | |
| 20260905145005 | 73 | 25 | 3.0 | 11.0 | 0.00 | 0.00 | 0.00 | 1012.4 | |
| 20260905144507 | 73 | 14 | 3.0 | 11.0 | 0.00 | 0.00 | 0.00 | 1012.4 | |
| 20260905144005 | 73 | 6 | 3.0 | 16.0 | 0.00 | 0.00 | 0.00 | 1012.4 | |
| 20260905143505 | 74 | 2 | 3.0 | 16.0 | 0.00 | 0.00 | 0.00 | 1012.4 | |
| 20260905143006 | 74 | 53 | 2.0 | 11.0 | 0.00 | 0.00 | 0.00 | 1012.4 | |
| 20260905142505 | 74 | 82 | 2.0 | 11.0 | 0.00 | 0.00 | 0.00 | 1012.3 | |
| 20260905142005 | 75 | 50 | 5.0 | 9.0 | 0.00 | 0.00 | 0.00 | 1012.4 | |
| 20260905141550 | 75 | 73 | 0.0 | 9.0 | 0.00 | 0.00 | 0.00 | 1012.3 | |
| 20260905141006 | 75 | 3 | 6.0 | 9.0 | 0.00 | 0.00 | 0.00 | 1012.2 | |
| 20260905140506 | 74 | 76 | 3.0 | 9.0 | 0.00 | 0.00 | 0.00 | 1012.3 | |
| 20260905140006 | 73 | 50 | 0.0 | 8.0 | 0.00 | 0.00 | 0.00 | 1012.3 | |
| 20260905135550 | 73 | 62 | 0.0 | 8.0 | 0.00 | 0.00 | 0.00 | 1012.3 | |
| 20260905135005 | 72 | 62 | 2.0 | 8.0 | 0.00 | 0.00 | 0.00 | 1012.4 | |
| 20260905134506 | 72 | 80 | 1.0 | 8.0 | 0.00 | 0.00 | 0.00 | 1012.5 | |
| 20260905134005 | 71 | 17 | 0.0 | 8.0 | 0.00 | 0.00 | 0.00 | 1012.4 | |
| 20260905133506 | 71 | 17 | 3.0 | 8.0 | 0.00 | 0.00 | 0.00 | 1012.5 | |
| 20260905133005 | 71 | 13 | 0.0 | 13.0 | 0.00 | 0.00 | 0.00 | 1012.4 | |
| 20260905132505 | 71 | 12 | 0.0 | 13.0 | 0.00 | 0.00 | 0.00 | 1012.5 | |
| 20260905132005 | 71 | 21 | 0.0 | 8.0 | 0.00 | 0.00 | 0.00 | 1012.5 | |
| 20260905131505 | 71 | 244 | 0.0 | 6.0 | 0.00 | 0.00 | 0.00 | 1012.5 | |
| 20260905131035 | 70 | 244 | 0.0 | 6.0 | 0.00 | 0.00 | 0.00 | 1012.4 | |
| 20260905130505 | 68 | 244 | 2.0 | 6.0 | 0.00 | 0.00 | 0.00 | 1012.3 | |
| 20260905130020 | 68 | 318 | 0.0 | 6.0 | 0.00 | 0.00 | 0.00 | 1012.4 | |
| 20260905125505 | 67 | 0 | 0.0 | 8.0 | 0.00 | 0.00 | 0.00 | 1012.4 | |
| 20260905125005 | 67 | 359 | 3.0 | 8.0 | 0.00 | 0.00 | 0.00 | 1012.3 | |
| 20260905124505 | 66 | 0 | 3.0 | 6.0 | 0.00 | 0.00 | 0.00 | 1012.4 | |
| 20260905124005 | 66 | 15 | 2.0 | 6.0 | 0.00 | 0.00 | 0.00 | 1012.2 | |
| 20260905123536 | 65 | 15 | 2.0 | 5.0 | 0.00 | 0.00 | 0.00 | 1012.2 | |
| 20260905123005 | 65 | 15 | 0.0 | 6.0 | 0.00 | 0.00 | 0.00 | 1012.2 | |
| 20260905122505 | 64 | 5 | 1.0 | 6.0 | 0.00 | 0.00 | 0.00 | 1012.2 | |
| 20260905122005 | 64 | 359 | 2.0 | 9.0 | 0.00 | 0.00 | 0.00 | 1012.1 | |
| 20260905121505 | 63 | 349 | 3.0 | 9.0 | 0.00 | 0.00 | 0.00 | 1012.1 | |
| 20260905121006 | 63 | 16 | 3.0 | 6.0 | 0.00 | 0.00 | 0.00 | 1012.0 | |
| 20260905120505 | 62 | 252 | 0.0 | 0.0 | 0.00 | 0.00 | 0.00 | 1011.9 | |
| 20260905120005 | 62 | 252 | 0.0 | 3.0 | 0.00 | 0.00 | 0.00 | 1011.9 | |
| 20260905115506 | 61 | 252 | 0.0 | 5.0 | 0.00 | 0.00 | 0.00 | 1011.8 | |
| 20260905115035 | 61 | 252 | 0.0 | 5.0 | 0.00 | 0.00 | 0.00 | 1011.8 | |
| 20260905114505 | 60 | 252 | 0.0 | 0.0 | 0.00 | 0.00 | 0.00 | 1011.7 | |
| 20260905114005 | 60 | 252 | 0.0 | 2.0 | 0.00 | 0.00 | 0.00 | 1011.4 | |
| 20260905113505 | 60 | 252 | 0.0 | 2.0 | 0.00 | 0.00 | 0.00 | 1011.4 | |
| 20260905113006 | 59 | 252 | 0.0 | 0.0 | 0.00 | 0.00 | 0.00 | 1011.4 | |
| 20260905112506 | 59 | 252 | 0.0 | 0.0 | 0.00 | 0.00 | 0.00 | 1011.3 | |
| 20260905112005 | 59 | 252 | 0.0 | 0.0 | 0.00 | 0.00 | 0.00 | 1011.3 | |
| 20260905111505 | 59 | 252 | 0.0 | 0.0 | 0.00 | 0.00 | 0.00 | 1011.3 | |
| 20260905111005 | 59 | 252 | 0.0 | 0.0 | 0.00 | 0.00 | 0.00 | 1011.3 | |
| 20260905110505 | 59 | 252 | 0.0 | 0.0 | 0.00 | 0.00 | 0.00 | 1011.2 | |
| 20260905110005 | 59 | 252 | 0.0 | 0.0 | 0.00 | 0.00 | 0.00 | 1011.1 | |
| 20260905105505 | 59 | 252 | 0.0 | 0.0 | 0.00 | 0.00 | 0.00 | 1011.2 | |
| 20260905105005 | 59 | 252 | 0.0 | 0.0 | 0.00 | 0.00 | 0.00 | 1011.1 | |
| 20260905104505 | 59 | 252 | 0.0 | 0.0 | 0.00 | 0.00 | 0.00 | 1011.1 | |
| 20260905104006 | 59 | 252 | 0.0 | 0.0 | 0.00 | 0.00 | 0.00 | 1010.9 | |
| 20260905103506 | 59 | 252 | 0.0 | 0.0 | 0.00 | 0.00 | 0.00 | 1010.8 | |
| 20260905103005 | 59 | 252 | 0.0 | 0.0 | 0.00 | 0.00 | 0.00 | 1010.9 | |
| 20260905102505 | 59 | 252 | 0.0 | 0.0 | 0.00 | 0.00 | 0.00 | 1010.8 | |
| 20260905102005 | 59 | 252 | 0.0 | 0.0 | 0.00 | 0.00 | 0.00 | 1010.7 | |
| 20260905101505 | 59 | 252 | 0.0 | 0.0 | 0.00 | 0.00 | 0.00 | 1010.7 | |
| 20260905101021 | 59 | 252 | 0.0 | 0.0 | 0.00 | 0.00 | 0.00 | 1010.6 | |
| 20260905100505 | 60 | 252 | 0.0 | 0.0 | 0.00 | 0.00 | 0.00 | 1010.6 | |
| 20260905100004 | 60 | 252 | 0.0 | 0.0 | 0.00 | 0.00 | 0.00 | 1010.6 | |
| 20260905095520 | 60 | 252 | 0.0 | 0.0 | 0.00 | 0.00 | 0.00 | 1010.6 | |
| 20260905095035 | 60 | 252 | 0.0 | 0.0 | 0.00 | 0.00 | 0.00 | 1010.6 | |
| 20260905094505 | 60 | 252 | 0.0 | 0.0 | 0.00 | 0.00 | 0.00 | 1010.7 | |
| 20260905094004 | 60 | 252 | 0.0 | 0.0 | 0.00 | 0.00 | 0.00 | 1010.6 | |
| 20260905093521 | 60 | 252 | 0.0 | 0.0 | 0.00 | 0.00 | 0.00 | 1010.6 | |
| 20260905093034 | 61 | 252 | 0.0 | 0.0 | 0.00 | 0.00 | 0.00 | 1010.6 | |
| 20260905092506 | 61 | 252 | 0.0 | 0.0 | 0.00 | 0.00 | 0.00 | 1010.7 | |
| 20260905092005 | 61 | 252 | 0.0 | 0.0 | 0.00 | 0.00 | 0.00 | 1010.7 | |
| 20260905091507 | 61 | 252 | 0.0 | 0.0 | 0.00 | 0.00 | 0.00 | 1010.7 | |
| 20260905091007 | 62 | 252 | 0.0 | 0.0 | 0.00 | 0.00 | 0.00 | 1010.7 | |
| 20260905090505 | 62 | 252 | 0.0 | 0.0 | 0.00 | 0.00 | 0.00 | 1010.6 | |
| 20260905090005 | 62 | 252 | 0.0 | 0.0 | 0.00 | 0.00 | 0.00 | 1010.6 | |
| 20260905085521 | 62 | 252 | 0.0 | 0.0 | 0.00 | 0.00 | 0.00 | 1010.6 | |
| 20260905085005 | 63 | 252 | 0.0 | 0.0 | 0.00 | 0.00 | 0.00 | 1010.6 | |
| 20260905084506 | 63 | 252 | 0.0 | 0.0 | 0.00 | 0.00 | 0.00 | 1010.6 | |
| 20260905084005 | 63 | 252 | 0.0 | 0.0 | 0.00 | 0.00 | 0.00 | 1010.6 | |
| 20260905083506 | 63 | 252 | 0.0 | 0.0 | 0.00 | 0.00 | 0.00 | 1010.7 | |
| 20260905083035 | 63 | 252 | 0.0 | 0.0 | 0.00 | 0.00 | 0.00 | 1010.6 | |
| 20260905082505 | 64 | 252 | 0.0 | 0.0 | 0.00 | 0.00 | 0.00 | 1010.6 | |
| 20260905082005 | 64 | 252 | 0.0 | 0.0 | 0.00 | 0.00 | 0.00 | 1010.7 | |
| 20260905081506 | 64 | 252 | 0.0 | 0.0 | 0.00 | 0.00 | 0.00 | 1010.8 | |
| 20260905081005 | 64 | 252 | 0.0 | 0.0 | 0.00 | 0.00 | 0.00 | 1010.7 | |
| 20260905080520 | 64 | 252 | 0.0 | 0.0 | 0.00 | 0.00 | 0.00 | 1010.7 | |
| 20260905080005 | 64 | 252 | 0.0 | 0.0 | 0.00 | 0.00 | 0.00 | 1010.8 | |
| 20260905075534 | 64 | 252 | 0.0 | 2.0 | 0.00 | 0.00 | 0.00 | 1010.8 | |
| 20260905075005 | 64 | 252 | 0.0 | 5.0 | 0.00 | 0.00 | 0.00 | 1010.8 | |
| 20260905074504 | 64 | 252 | 1.0 | 5.0 | 0.00 | 0.00 | 0.00 | 1010.7 | |
| 20260905074021 | 64 | 252 | 0.0 | 0.0 | 0.00 | 0.00 | 0.00 | 1010.7 | |
| 20260905073506 | 64 | 252 | 0.0 | 0.0 | 0.00 | 0.00 | 0.00 | 1010.7 | |
| 20260905073005 | 64 | 252 | 0.0 | 0.0 | 0.00 | 0.00 | 0.00 | 1010.8 | |
| 20260905072521 | 64 | 252 | 0.0 | 0.0 | 0.00 | 0.00 | 0.00 | 1010.8 | |
| 20260905072005 | 64 | 252 | 0.0 | 0.0 | 0.00 | 0.00 | 0.00 | 1010.7 | |
| 20260905071505 | 64 | 252 | 0.0 | 3.0 | 0.00 | 0.00 | 0.00 | 1010.9 | |
| 20260905071005 | 64 | 252 | 0.0 | 3.0 | 0.00 | 0.00 | 0.00 | 1010.8 | |
| 20260905070505 | 64 | 252 | 0.0 | 0.0 | 0.00 | 0.00 | 0.00 | 1011.1 | |
| 20260905070005 | 64 | 252 | 0.0 | 0.0 | 0.00 | 0.00 | 0.00 | 1011.2 | |
| 20260905065505 | 64 | 252 | 0.0 | 0.0 | 0.00 | 0.00 | 0.00 | 1011.0 | |
| 20260905065005 | 64 | 252 | 0.0 | 3.0 | 0.00 | 0.00 | 0.00 | 1011.0 | |
| 20260905064505 | 64 | 252 | 0.0 | 3.0 | 0.00 | 0.00 | 0.00 | 1011.1 | |
| 20260905064005 | 64 | 252 | 0.0 | 3.0 | 0.00 | 0.00 | 0.00 | 1010.9 | |
| 20260905063505 | 64 | 252 | 0.0 | 3.0 | 0.00 | 0.00 | 0.00 | 1010.9 | |
| 20260905063005 | 64 | 252 | 0.0 | 3.0 | 0.00 | 0.00 | 0.00 | 1011.0 | |
| 20260905062505 | 64 | 252 | 0.0 | 3.0 | 0.00 | 0.00 | 0.00 | 1011.0 | |
| 20260905062004 | 64 | 252 | 1.0 | 5.0 | 0.00 | 0.00 | 0.00 | 1011.1 | |
| 20260905061505 | 64 | 252 | 2.0 | 5.0 | 0.00 | 0.00 | 0.00 | 1011.2 | |
| 20260905061004 | 64 | 252 | 0.0 | 0.0 | 0.00 | 0.00 | 0.00 | 1011.2 | |
| 20260905060504 | 64 | 252 | 0.0 | 3.0 | 0.00 | 0.00 | 0.00 | 1011.3 | |
| 20260905060005 | 64 | 252 | 0.0 | 5.0 | 0.00 | 0.00 | 0.00 | 1011.2 | |
| 20260905055504 | 64 | 252 | 0.0 | 5.0 | 0.00 | 0.00 | 0.00 | 1011.3 | |
| 20260905055004 | 64 | 252 | 1.0 | 3.0 | 0.00 | 0.00 | 0.00 | 1011.3 | |
| 20260905054505 | 64 | 252 | 0.0 | 0.0 | 0.00 | 0.00 | 0.00 | 1011.2 | |
| 20260905054004 | 64 | 252 | 0.0 | 0.0 | 0.00 | 0.00 | 0.00 | 1011.3 | |
| 20260905053504 | 64 | 252 | 0.0 | 3.0 | 0.00 | 0.00 | 0.00 | 1011.2 | |
| 20260905053004 | 64 | 252 | 0.0 | 3.0 | 0.00 | 0.00 | 0.00 | 1011.3 | |
| 20260905052504 | 65 | 252 | 0.0 | 0.0 | 0.00 | 0.00 | 0.00 | 1011.4 | |
| 20260905052004 | 65 | 252 | 0.0 | 0.0 | 0.00 | 0.00 | 0.00 | 1011.3 | |
| 20260905051505 | 65 | 252 | 0.0 | 0.0 | 0.00 | 0.00 | 0.00 | 1011.5 | |
| 20260905051005 | 65 | 252 | 0.0 | 0.0 | 0.00 | 0.00 | 0.00 | 1011.6 | |
| 20260905050534 | 66 | 252 | 0.0 | 0.0 | 0.00 | 0.00 | 0.00 | 1011.5 | |
| 20260905050005 | 66 | 252 | 0.0 | 0.0 | 0.00 | 0.00 | 0.00 | 1011.7 | |
| 20260905045504 | 66 | 252 | 0.0 | 0.0 | 0.00 | 0.00 | 0.00 | 1011.7 | |
| 20260905045004 | 66 | 252 | 0.0 | 0.0 | 0.00 | 0.00 | 0.00 | 1011.6 | |
| 20260905044006 | 66 | 252 | 0.0 | 0.0 | 0.00 | 0.00 | 0.00 | 1011.6 | |
| 20260905043504 | 67 | 252 | 0.0 | 5.0 | 0.00 | 0.00 | 0.00 | 1011.6 | |
| 20260905043019 | 67 | 252 | 0.0 | 5.0 | 0.00 | 0.00 | 0.00 | 1011.7 | |
| 20260905042505 | 67 | 252 | 3.0 | 5.0 | 0.00 | 0.00 | 0.00 | 1011.7 | |
| 20260905042006 | 66 | 252 | 1.0 | 5.0 | 0.00 | 0.00 | 0.00 | 1011.7 | |
| 20260905041504 | 67 | 252 | 0.0 | 5.0 | 0.00 | 0.00 | 0.00 | 1011.6 | |
| 20260905041004 | 67 | 252 | 0.0 | 5.0 | 0.00 | 0.00 | 0.00 | 1011.7 | |
| 20260905040549 | 67 | 252 | 0.0 | 6.0 | 0.00 | 0.00 | 0.00 | 1011.8 | |
| 20260905040049 | 67 | 252 | 0.0 | 6.0 | 0.00 | 0.00 | 0.00 | 1011.7 | |
| 20260905035519 | 67 | 252 | 0.0 | 5.0 | 0.00 | 0.00 | 0.00 | 1011.7 | |
| 20260905035004 | 67 | 252 | 2.0 | 6.0 | 0.00 | 0.00 | 0.00 | 1011.8 | |
| 20260905034505 | 66 | 252 | 2.0 | 6.0 | 0.00 | 0.00 | 0.00 | 1011.8 | |
| 20260905034004 | 66 | 252 | 2.0 | 5.0 | 0.00 | 0.00 | 0.00 | 1011.7 | |
| 20260905033505 | 66 | 252 | 1.0 | 6.0 | 0.00 | 0.00 | 0.00 | 1011.5 | |
| 20260905033004 | 66 | 252 | 3.0 | 6.0 | 0.00 | 0.00 | 0.00 | 1011.6 | |
| 20260905032504 | 66 | 252 | 0.0 | 0.0 | 0.00 | 0.00 | 0.00 | 1011.5 | |
| 20260905032004 | 66 | 252 | 0.0 | 0.0 | 0.00 | 0.00 | 0.00 | 1011.4 | |
| 20260905031504 | 66 | 252 | 0.0 | 0.0 | 0.00 | 0.00 | 0.00 | 1011.5 | |
| 20260905031034 | 65 | 252 | 0.0 | 2.0 | 0.00 | 0.00 | 0.00 | 1011.6 | |
| 20260905030504 | 65 | 252 | 0.0 | 2.0 | 0.00 | 0.00 | 0.00 | 1011.5 | |
| 20260905030004 | 65 | 252 | 0.0 | 0.0 | 0.00 | 0.00 | 0.00 | 1011.4 | |
| 20260905025504 | 65 | 252 | 0.0 | 3.0 | 0.00 | 0.00 | 0.00 | 1011.4 |